Regional Weather Roundup
Issued by NWS Jackson, KY

Home | Current Version | Previous Version | Graphics & Text | Print | Product List | Glossary On
Versions: 1 2 3 4 5 6 7 8 9 10 11 12 13 14 15 16 17 18 19 20 21 22 23 24 25 26 27 28 29 30 31 32 33 34 35 36 37 38 39 40 41 42 43 44 45 46 47 48 49 50
000
ASUS43 KJKL 130210
RWRJKL

EAST KENTUCKY HOURLY WEATHER ROUNDUP
NATIONAL WEATHER SERVICE JACKSON KY
900 PM EST FRI FEB 12 2016

NOTE: "FAIR" INDICATES FEW OR NO CLOUDS BELOW 12,000 FEET WITH
NO SIGNIFICANT WEATHER AND/OR OBSTRUCTIONS TO VISIBILITY.

* THESE REPORTS ARE NOT UNDER NWS QUALITY CONTROL AND MAY NOT
  REPORT WEATHER SUCH AS PRECIPITATION AND FOG.

KYZ079-080-083-085-087-088-110-112-115-119-120-130300
...EASTERN KENTUCKY...

CITY           SKY/WX    TMP DP  RH WIND       PRES   REMARKS
JACKSON        FLURRIES  28  17  63 W13G26    30.14R WCI  17
LONDON         FLURRIES  29  22  75 W9        30.19S WCI  20
SOMERSET*      CLOUDY    30  23  74 W9G18     30.26R WCI  22
MONTICELLO*    FLURRIES  30  24  78 NW16G24   30.27R WCI  19
WILLIAMSBURG*  CLOUDY    30  23  74 W8G16     30.21S WCI  23
MIDDLESBORO*   FLURRIES  32  24  73 NW15G22   30.20R WCI  21
HARLAN APT*    CLOUDY    30  21  69 SW9       30.16R WCI  22
HAZARD APT*    CLOUDY    27  18  69 W20G28    30.15R WCI  13
BLACK MTN*       N/A     18  18 100 N8          N/A  WCI   7
BIG SANDY*     FLURRIES  29  19  66 W8        30.12S WCI  21
MOREHEAD APT*  MOCLDY    28  14  54 W15G25    30.18R WCI  17
$$

KYZ035-036-041-042-044-050-067-078-099-130300
...CENTRAL KENTUCKY...

CITY           SKY/WX    TMP DP  RH WIND       PRES   REMARKS
MT STERLING*   CLOUDY    28  19  69 NW13G22   30.21R WCI  18
DANVILLE*      CLOUDY    28  19  69 NW10G22   30.24R WCI  19
RICHMOND*      CLOUDY    28  18  64 W14G23    30.21R WCI  17
LEXINGTON      FLURRIES  26  14  60 W12G23    30.22R WCI  16
FRANKFORT      CLOUDY    28  14  55 W12G24    30.23R WCI  18
$$

KYZ091>093-OHZ055-061-077-WVZ005-015-034-035-042-130300
...SOUTHERN OHIO/WEST VIRGINIA...

CITY           SKY/WX    TMP DP  RH WIND       PRES   REMARKS
COVINGTON      MOCLDY    22  11  62 W16       30.22R WCI   8
COLUMBUS       FLURRIES  18   7  62 NW15G25   30.13R WCI   4
DAYTON         CLOUDY    18   8  65 NW14      30.19R WCI   4
WILMINGTON     LGT SNOW  19  14  81 NW18      30.17R WCI   4
HUNTINGTON     FLURRIES  26  22  84 NW8G18    30.14R WCI  18
CHARLESTON     FLURRIES  29  15  56 NW14G20   30.09R WCI  18
PINEVILLE*     LGT SNOW  28  20  71 MISG      30.09R
BECKLEY        LGT SNOW  23  18  81 W13G30    29.97R WCI  11
$$

VAZ002-007-008-TNZ017-027-036-066-071-130300
...SOUTHWEST VIRGINIA/EAST TENNESSEE...

CITY           SKY/WX    TMP DP  RH WIND       PRES   REMARKS
BRISTOL        FLURRIES  31  24  75 W14       30.13R WCI  21
KNOXVILLE      CLOUDY    34  26  72 W12       30.22R WCI  25
OAK RIDGE      CLOUDY    35  24  64 VRB6      30.23R WCI  30
CROSSVILLE     CLOUDY    30  22  72 NW16G23   30.20R WCI  19
NASHVILLE      PTCLDY    34  23  64 NW10G17   30.33R WCI  26
$$

...KEY TO REMARKS...
VSB - VISIBILITY IN MILES
WCI - WIND CHILL INDEX
HX  - HEAT INDEX

$$



USA.gov is the U.S. government's official web portal to all federal, state and local government web resources and services.